Time,TemperatureF,DewpointF,PressureIn,WindDirection,WindDirectionDegrees,WindSpeedMPH,WindSpeedGustMPH,Humidity,HourlyPrecipIn,Conditions,Clouds,dailyrainin,SolarRadiationWatts/m^2,SoftwareType,DateUTC
2013-01-28 00:13:00,54.4,52.0,29.83,SW,236,5.0,-999.0,92,-99.99,,,0.00,0,weatherlink.com 1.10,2013-01-27 23:13:00,
2013-01-28 00:29:00,54.5,52.0,29.83,WSW,246,8.0,-999.0,92,-99.99,,,0.00,0,weatherlink.com 1.10,2013-01-27 23:29:00,
2013-01-28 00:43:00,54.5,52.0,29.83,SW,226,7.0,-999.0,92,-99.99,,,0.00,0,weatherlink.com 1.10,2013-01-27 23:43:00,
2013-01-28 00:59:00,54.4,52.0,29.83,SW,227,5.0,-999.0,92,-99.99,,,0.00,0,weatherlink.com 1.10,2013-01-27 23:59:00,
2013-01-28 01:14:00,54.5,52.0,29.82,West,276,13.0,-999.0,92,-99.99,,,0.01,0,weatherlink.com 1.10,2013-01-28 00:14:00,
2013-01-28 01:30:00,53.8,51.0,29.81,WSW,248,8.0,-999.0,91,-99.99,,,0.02,0,weatherlink.com 1.10,2013-01-28 00:30:00,
2013-01-28 01:45:00,53.8,51.0,29.81,West,275,15.0,-999.0,91,-99.99,,,0.02,0,weatherlink.com 1.10,2013-01-28 00:45:00,
2013-01-28 02:00:00,54.2,51.0,29.81,West,278,16.0,-999.0,89,-99.99,,,0.02,0,weatherlink.com 1.10,2013-01-28 01:00:00,
2013-01-28 02:16:00,54.6,51.0,29.81,WNW,287,21.0,-999.0,87,-99.99,,,0.02,0,weatherlink.com 1.10,2013-01-28 01:16:00,
2013-01-28 02:30:00,54.4,51.0,29.80,WNW,303,12.0,-999.0,88,-99.99,,,0.02,0,weatherlink.com 1.10,2013-01-28 01:30:00,
2013-01-28 02:45:00,54.3,51.0,29.80,West,280,19.0,-999.0,88,-99.99,,,0.02,0,weatherlink.com 1.10,2013-01-28 01:45:00,
2013-01-28 03:01:00,54.4,51.0,29.81,WNW,287,22.0,-999.0,87,-99.99,,,0.02,0,weatherlink.com 1.10,2013-01-28 02:01:00,
2013-01-28 03:16:00,54.7,51.0,29.81,West,277,16.0,-999.0,87,-99.99,,,0.02,0,weatherlink.com 1.10,2013-01-28 02:16:00,
2013-01-28 03:31:00,54.5,51.0,29.81,West,279,11.0,-999.0,88,-99.99,,,0.02,0,weatherlink.com 1.10,2013-01-28 02:31:00,
2013-01-28 03:46:00,54.6,51.0,29.82,West,268,12.0,-999.0,88,-99.99,,,0.02,0,weatherlink.com 1.10,2013-01-28 02:46:00,
2013-01-28 04:02:00,54.2,51.0,29.81,NW,311,11.0,-999.0,88,-99.99,,,0.02,0,weatherlink.com 1.10,2013-01-28 03:02:00,
2013-01-28 04:17:00,54.0,51.0,29.82,NNW,346,8.0,-999.0,90,-99.99,,,0.04,0,weatherlink.com 1.10,2013-01-28 03:17:00,
2013-01-28 04:32:00,53.0,51.0,29.82,NNW,343,10.0,-999.0,92,-99.99,,,0.05,0,weatherlink.com 1.10,2013-01-28 03:32:00,
2013-01-28 04:47:00,52.1,49.0,29.84,North,355,19.0,-999.0,88,-99.99,,,0.05,0,weatherlink.com 1.10,2013-01-28 03:47:00,
2013-01-28 05:02:00,52.0,49.0,29.85,NNW,327,12.0,-999.0,88,-99.99,,,0.05,0,weatherlink.com 1.10,2013-01-28 04:02:00,
2013-01-28 05:18:00,51.5,48.0,29.86,NW,325,11.0,-999.0,86,-99.99,,,0.05,0,weatherlink.com 1.10,2013-01-28 04:18:00,
2013-01-28 05:32:00,51.5,48.0,29.89,NW,323,14.0,-999.0,86,-99.99,,,0.05,0,weatherlink.com 1.10,2013-01-28 04:32:00,
2013-01-28 05:48:00,51.0,47.0,29.91,NNW,341,12.0,-999.0,85,-99.99,,,0.05,0,weatherlink.com 1.10,2013-01-28 04:48:00,
2013-01-28 06:04:00,49.1,45.0,29.93,NNW,346,4.0,-999.0,87,-99.99,,,0.05,0,weatherlink.com 1.10,2013-01-28 05:04:00,
2013-01-28 06:18:00,48.4,45.0,29.94,NE,45,6.0,-999.0,89,-99.99,,,0.06,0,weatherlink.com 1.10,2013-01-28 05:18:00,
2013-01-28 06:34:00,47.8,45.0,29.96,NNE,27,6.0,-999.0,90,-99.99,,,0.07,0,weatherlink.com 1.10,2013-01-28 05:34:00,
2013-01-28 06:50:00,47.5,45.0,29.97,NNE,19,10.0,-999.0,90,-99.99,,,0.07,0,weatherlink.com 1.10,2013-01-28 05:50:00,
2013-01-28 07:04:00,47.5,45.0,29.99,North,11,2.0,-999.0,90,-99.99,,,0.07,0,weatherlink.com 1.10,2013-01-28 06:04:00,
2013-01-28 07:20:00,47.4,45.0,30.00,NNW,340,5.0,-999.0,90,-99.99,,,0.08,0,weatherlink.com 1.10,2013-01-28 06:20:00,
2013-01-28 07:34:00,47.5,45.0,30.03,North,350,3.0,-999.0,90,-99.99,,,0.08,0,weatherlink.com 1.10,2013-01-28 06:34:00,
2013-01-28 07:50:00,47.6,45.0,30.05,NNW,344,6.0,-999.0,91,-99.99,,,0.09,0,weatherlink.com 1.10,2013-01-28 06:50:00,
2013-01-28 08:05:00,47.6,45.0,30.05,North,355,3.0,-999.0,91,-99.99,,,0.09,0,weatherlink.com 1.10,2013-01-28 07:05:00,
2013-01-28 08:20:00,47.1,45.0,30.06,North,351,2.0,-999.0,91,-99.99,,,0.09,7,weatherlink.com 1.10,2013-01-28 07:20:00,
2013-01-28 08:36:00,47.1,44.0,30.08,North,350,0.0,-999.0,90,-99.99,,,0.09,16,weatherlink.com 1.10,2013-01-28 07:36:00,
2013-01-28 08:51:00,47.4,45.0,30.08,North,350,0.0,-999.0,90,-99.99,,,0.09,37,weatherlink.com 1.10,2013-01-28 07:51:00,
2013-01-28 09:05:00,47.2,45.0,30.08,North,350,0.0,-999.0,90,-99.99,,,0.09,30,weatherlink.com 1.10,2013-01-28 08:05:00,
2013-01-28 09:21:00,47.4,45.0,30.08,NNW,338,3.0,-999.0,90,-99.99,,,0.09,30,weatherlink.com 1.10,2013-01-28 08:21:00,
2013-01-28 09:36:00,47.8,45.0,30.07,WSW,254,7.0,-999.0,90,-99.99,,,0.09,230,weatherlink.com 1.10,2013-01-28 08:36:00,
2013-01-28 09:52:00,49.3,46.0,30.09,WSW,258,9.0,-999.0,88,-99.99,,,0.09,271,weatherlink.com 1.10,2013-01-28 08:52:00,
2013-01-28 10:07:00,50.3,47.0,30.11,West,259,6.0,-999.0,87,-99.99,,,0.09,323,weatherlink.com 1.10,2013-01-28 09:07:00,
2013-01-28 10:23:00,50.9,47.0,30.12,WSW,250,9.0,-999.0,86,-99.99,,,0.09,376,weatherlink.com 1.10,2013-01-28 09:23:00,
2013-01-28 10:37:00,50.9,47.0,30.13,WNW,288,6.0,-999.0,86,-99.99,,,0.09,114,weatherlink.com 1.10,2013-01-28 09:37:00,
2013-01-28 10:53:00,51.9,47.0,30.12,WNW,292,11.0,-999.0,83,-99.99,,,0.09,452,weatherlink.com 1.10,2013-01-28 09:53:00,
2013-01-28 11:07:00,51.9,45.0,30.12,West,277,9.0,-999.0,77,-99.99,,,0.09,461,weatherlink.com 1.10,2013-01-28 10:07:00,
2013-01-28 11:23:00,52.5,45.0,30.13,West,268,15.0,-999.0,76,-99.99,,,0.09,483,weatherlink.com 1.10,2013-01-28 10:23:00,
2013-01-28 11:38:00,52.9,45.0,30.13,NW,308,5.0,-999.0,75,-99.99,,,0.09,510,weatherlink.com 1.10,2013-01-28 10:38:00,
2013-01-28 11:53:00,53.6,45.0,30.12,WNW,291,12.0,-999.0,72,-99.99,,,0.09,531,weatherlink.com 1.10,2013-01-28 10:53:00,
2013-01-28 12:09:00,54.0,45.0,30.12,NNW,338,2.0,-999.0,71,-99.99,,,0.09,545,weatherlink.com 1.10,2013-01-28 11:09:00,
2013-01-28 12:24:00,55.0,45.0,30.11,WNW,298,11.0,-999.0,68,-99.99,,,0.09,561,weatherlink.com 1.10,2013-01-28 11:24:00,
2013-01-28 12:39:00,54.7,43.0,30.11,NNW,331,17.0,-999.0,66,-99.99,,,0.09,568,weatherlink.com 1.10,2013-01-28 11:39:00,
2013-01-28 12:54:00,55.1,43.0,30.10,NNW,329,18.0,-999.0,63,-99.99,,,0.09,577,weatherlink.com 1.10,2013-01-28 11:54:00,
2013-01-28 13:10:00,54.7,43.0,30.10,NNW,345,17.0,-999.0,66,-99.99,,,0.09,578,weatherlink.com 1.10,2013-01-28 12:10:00,
2013-01-28 13:25:00,55.2,43.0,30.09,NNW,343,16.0,-999.0,63,-99.99,,,0.09,571,weatherlink.com 1.10,2013-01-28 12:25:00,
2013-01-28 13:39:00,56.1,42.0,30.10,NNW,336,10.0,-999.0,60,-99.99,,,0.09,561,weatherlink.com 1.10,2013-01-28 12:39:00,
2013-01-28 13:55:00,55.8,43.0,30.12,NW,325,20.0,-999.0,63,-99.99,,,0.09,550,weatherlink.com 1.10,2013-01-28 12:55:00,
2013-01-28 14:10:00,56.0,44.0,30.12,NW,325,16.0,-999.0,64,-99.99,,,0.09,536,weatherlink.com 1.10,2013-01-28 13:10:00,
2013-01-28 14:26:00,56.0,43.0,30.14,NNW,346,20.0,-999.0,61,-99.99,,,0.09,81,weatherlink.com 1.10,2013-01-28 13:26:00,
2013-01-28 14:40:00,55.9,43.0,30.14,WNW,298,15.0,-999.0,63,-99.99,,,0.09,494,weatherlink.com 1.10,2013-01-28 13:40:00,
2013-01-28 14:56:00,56.1,42.0,30.11,NNW,329,21.0,-999.0,59,-99.99,,,0.09,471,weatherlink.com 1.10,2013-01-28 13:56:00,
2013-01-28 15:11:00,55.9,42.0,30.13,North,360,25.0,-999.0,59,-99.99,,,0.09,441,weatherlink.com 1.10,2013-01-28 14:11:00,
2013-01-28 15:27:00,56.0,42.0,30.13,North,349,17.0,-999.0,60,-99.99,,,0.09,408,weatherlink.com 1.10,2013-01-28 14:27:00,
2013-01-28 15:41:00,56.3,41.0,30.16,NNW,344,14.0,-999.0,58,-99.99,,,0.09,369,weatherlink.com 1.10,2013-01-28 14:41:00,
2013-01-28 15:57:00,56.1,42.0,30.16,NW,318,13.0,-999.0,59,-99.99,,,0.09,332,weatherlink.com 1.10,2013-01-28 14:57:00,
2013-01-28 16:12:00,56.8,43.0,30.17,NNW,342,13.0,-999.0,60,-99.99,,,0.09,288,weatherlink.com 1.10,2013-01-28 15:12:00,
2013-01-28 16:27:00,56.4,41.0,30.17,North,355,11.0,-999.0,56,-99.99,,,0.09,244,weatherlink.com 1.10,2013-01-28 15:27:00,
2013-01-28 16:42:00,56.5,43.0,30.18,West,281,1.0,-999.0,60,-99.99,,,0.09,207,weatherlink.com 1.10,2013-01-28 15:42:00,
2013-01-28 16:58:00,55.9,42.0,30.18,NNW,342,7.0,-999.0,60,-99.99,,,0.09,84,weatherlink.com 1.10,2013-01-28 15:58:00,
2013-01-28 17:12:00,55.6,43.0,30.19,NW,316,2.0,-999.0,63,-99.99,,,0.09,40,weatherlink.com 1.10,2013-01-28 16:12:00,
2013-01-28 17:28:00,55.2,43.0,30.19,NNW,332,6.0,-999.0,63,-99.99,,,0.09,32,weatherlink.com 1.10,2013-01-28 16:28:00,
2013-01-28 17:43:00,54.7,44.0,30.20,West,281,5.0,-999.0,67,-99.99,,,0.09,23,weatherlink.com 1.10,2013-01-28 16:43:00,
2013-01-28 17:58:00,54.3,45.0,30.21,WSW,258,4.0,-999.0,70,-99.99,,,0.09,5,weatherlink.com 1.10,2013-01-28 16:58:00,
2013-01-28 18:13:00,53.6,45.0,30.21,WNW,284,5.0,-999.0,73,-99.99,,,0.09,0,weatherlink.com 1.10,2013-01-28 17:13:00,
2013-01-28 18:29:00,53.1,45.0,30.22,West,267,2.0,-999.0,74,-99.99,,,0.09,0,weatherlink.com 1.10,2013-01-28 17:29:00,
2013-01-28 18:43:00,53.2,45.0,30.23,WSW,257,9.0,-999.0,73,-99.99,,,0.09,0,weatherlink.com 1.10,2013-01-28 17:43:00,
2013-01-28 18:59:00,53.4,46.0,30.22,West,267,12.0,-999.0,75,-99.99,,,0.09,0,weatherlink.com 1.10,2013-01-28 17:59:00,
2013-01-28 19:14:00,53.3,46.0,30.23,West,269,9.0,-999.0,75,-99.99,,,0.09,0,weatherlink.com 1.10,2013-01-28 18:14:00,
2013-01-28 19:30:00,53.3,45.0,30.24,WNW,293,6.0,-999.0,73,-99.99,,,0.09,0,weatherlink.com 1.10,2013-01-28 18:30:00,
2013-01-28 19:45:00,53.4,45.0,30.24,NW,312,3.0,-999.0,73,-99.99,,,0.09,0,weatherlink.com 1.10,2013-01-28 18:45:00,
2013-01-28 19:59:00,53.0,45.0,30.25,WNW,302,1.0,-999.0,75,-99.99,,,0.09,0,weatherlink.com 1.10,2013-01-28 18:59:00,
2013-01-28 20:15:00,52.8,45.0,30.25,WNW,289,6.0,-999.0,75,-99.99,,,0.09,0,weatherlink.com 1.10,2013-01-28 19:15:00,
2013-01-28 20:30:00,52.7,46.0,30.25,WNW,292,2.0,-999.0,78,-99.99,,,0.09,0,weatherlink.com 1.10,2013-01-28 19:30:00,
2013-01-28 20:46:00,52.5,45.0,30.25,WNW,293,0.0,-999.0,77,-99.99,,,0.09,0,weatherlink.com 1.10,2013-01-28 19:46:00,
2013-01-28 21:00:00,52.4,45.0,30.25,WNW,293,0.0,-999.0,76,-99.99,,,0.09,0,weatherlink.com 1.10,2013-01-28 20:00:00,
2013-01-28 21:15:00,49.8,44.0,30.25,WNW,293,0.0,-999.0,79,-99.99,,,0.09,0,weatherlink.com 1.10,2013-01-28 20:15:00,
2013-01-28 21:31:00,49.6,44.0,30.27,WNW,293,0.0,-999.0,82,-99.99,,,0.09,0,weatherlink.com 1.10,2013-01-28 20:31:00,
2013-01-28 21:46:00,50.7,45.0,30.27,WNW,293,0.0,-999.0,81,-99.99,,,0.09,0,weatherlink.com 1.10,2013-01-28 20:46:00,
2013-01-28 22:01:00,50.7,44.0,30.27,NW,309,4.0,-999.0,79,-99.99,,,0.09,0,weatherlink.com 1.10,2013-01-28 21:01:00,
2013-01-28 22:16:00,51.8,43.0,30.28,NW,325,0.0,-999.0,73,-99.99,,,0.09,0,weatherlink.com 1.10,2013-01-28 21:16:00,
2013-01-28 22:32:00,51.6,42.0,30.28,NW,325,5.0,-999.0,71,-99.99,,,0.09,0,weatherlink.com 1.10,2013-01-28 21:32:00,
2013-01-28 22:47:00,51.6,42.0,30.28,NNW,344,3.0,-999.0,70,-99.99,,,0.09,0,weatherlink.com 1.10,2013-01-28 21:47:00,
2013-01-28 23:02:00,49.9,42.0,30.28,NNW,344,0.0,-999.0,73,-99.99,,,0.09,0,weatherlink.com 1.10,2013-01-28 22:02:00,
2013-01-28 23:17:00,47.3,41.0,30.29,NNW,344,0.0,-999.0,78,-99.99,,,0.09,0,weatherlink.com 1.10,2013-01-28 22:17:00,
2013-01-28 23:32:00,47.1,41.0,30.28,NNW,344,0.0,-999.0,80,-99.99,,,0.09,0,weatherlink.com 1.10,2013-01-28 22:32:00,
2013-01-28 23:48:00,47.5,41.0,30.28,NNW,345,0.0,-999.0,79,-99.99,,,0.09,0,weatherlink.com 1.10,2013-01-28 22:48:00,